Date String (YYYY-MM-DD hh:mm:ss) UTC,Instrument flags,Ambient pressure (hPa),Sample flow (lpm),Bypass flow (lpm),Sample temperature (°C),Ambient temperature (°C),ASC tube jacket temperature (°C),LED temperature (°C),Box temperature (°C),Sample RH (%),Span deviation,Mass concentration (μg/m³),Mass concentration (μg/m³),Mass concentration (μg/m³)
DateTimeUTC,F1_M11,P_M11,Q1_M11,Q2_M11,T1_M11,T2_M11,T3_M11,T4_M11,T5_M11,U1_M11,ZSPAN_M11,X0_M11,X2_M11,X1_M11
2021-12-10 06:00:00,,0810.3,5.01,0.00,24.7,23.8,00.0,33.7,26.5,13.3,0000.0,0016.20,0004.59,0003.32
2021-12-10 06:01:00,,0810.3,5.00,0.00,24.7,23.8,00.0,33.7,26.5,13.2,0000.0,0015.83,0004.61,0003.32
2021-12-10 06:02:00,,0810.3,4.99,0.00,24.7,23.8,00.0,33.7,26.5,13.3,0000.0,0015.94,0004.67,0003.33
2021-12-10 06:03:00,,0810.3,5.00,0.00,24.7,23.8,00.0,33.7,26.5,13.3,0000.0,0016.18,0004.68,0003.33
2021-12-10 06:04:00,,0810.3,5.00,0.00,24.7,23.8,00.0,33.7,26.5,13.3,0000.0,0017.87,0004.73,0003.34
2021-12-10 06:05:00,,0810.3,5.01,0.00,24.7,23.8,00.0,33.7,26.5,13.3,0000.0,0018.25,0004.74,0003.35
2021-12-10 06:06:00,,0810.3,4.99,0.00,24.7,23.8,00.0,33.7,26.5,13.3,0000.0,0017.82,0004.76,0003.35
2021-12-10 06:07:00,,0810.4,5.01,0.00,24.7,23.8,00.0,33.7,26.5,13.3,0000.0,0018.05,0004.84,0003.37
2021-12-10 06:08:00,,0810.3,4.98,0.00,24.7,23.8,00.0,33.7,26.5,13.3,0000.0,0018.48,0004.91,0003.38
2021-12-10 06:09:00,,0810.2,4.99,0.00,24.7,23.8,00.0,33.7,26.5,13.3,0000.0,0019.05,0004.98,0003.41
2021-12-10 06:10:00,,0810.2,5.00,0.00,24.7,23.8,00.0,33.7,26.5,13.3,0000.0,0019.64,0005.00,0003.42
2021-12-10 06:11:00,,0810.2,5.01,0.00,24.7,23.8,00.0,33.7,26.5,13.3,0000.0,0019.52,0005.00,0003.44
2021-12-10 06:12:00,,0810.2,4.99,0.00,24.7,23.8,00.0,33.6,26.5,13.3,0000.0,0019.62,0005.02,0003.44
2021-12-10 06:13:00,,0810.2,5.01,0.00,24.7,23.8,00.0,33.6,26.5,13.3,0000.0,0019.21,0005.06,0003.45
2021-12-10 06:14:00,,0810.2,4.98,0.00,24.7,23.7,00.0,33.6,26.5,13.3,0000.0,0018.82,0005.05,0003.46
2021-12-10 06:15:00,,0810.3,5.01,0.00,24.7,23.7,00.0,33.6,26.4,13.4,0000.0,0017.60,0005.05,0003.48
2021-12-10 06:16:00,,0810.2,5.00,0.00,24.6,23.7,00.0,33.6,26.5,13.4,0000.0,0016.54,0005.11,0003.49
2021-12-10 06:17:00,,0810.2,4.99,0.00,24.6,23.7,00.0,33.6,26.4,13.3,0000.0,0016.80,0005.18,0003.50
2021-12-10 06:18:00,,0810.2,5.01,0.00,24.6,23.7,00.0,33.6,26.4,13.3,0000.0,0015.98,0005.18,0003.49
2021-12-10 06:19:00,,0810.2,4.99,0.00,24.6,23.7,00.0,33.6,26.4,13.4,0000.0,0015.26,0005.18,0003.49
2021-12-10 06:20:00,,0810.2,4.99,0.00,24.6,23.7,00.0,33.6,26.4,13.4,0000.0,0014.76,0005.16,0003.47
2021-12-10 06:21:00,,0810.1,5.00,0.00,24.6,23.7,00.0,33.6,26.4,13.4,0000.0,0014.17,0005.12,0003.46
2021-12-10 06:22:00,,0810.2,5.00,0.00,24.6,23.7,00.0,33.6,26.4,13.4,0000.0,0014.59,0005.13,0003.45
2021-12-10 06:23:00,,0810.1,5.01,0.00,24.6,23.7,00.0,33.6,26.4,13.4,0000.0,0014.57,0005.12,0003.44
2021-12-10 06:24:00,,0810.1,4.98,0.00,24.6,23.7,00.0,33.6,26.4,13.4,0000.0,0014.82,0005.06,0003.42
2021-12-10 06:25:00,,0810.1,5.02,0.00,24.6,23.7,00.0,33.6,26.4,13.4,0000.0,0015.57,0005.04,0003.40
2021-12-10 06:26:00,,0810.1,5.00,0.00,24.6,23.7,00.0,33.6,26.4,13.4,0000.0,0015.68,0005.04,0003.37
2021-12-10 06:27:00,,0810.1,5.00,0.00,24.6,23.7,00.0,33.6,26.4,13.4,0000.0,0016.00,0005.05,0003.35
2021-12-10 06:28:00,,0810.0,5.01,0.00,24.6,23.7,00.0,33.6,26.4,13.4,0000.0,0015.83,0004.96,0003.34
2021-12-10 06:29:00,,0809.9,5.00,0.00,24.6,23.7,00.0,33.6,26.4,13.4,0000.0,0015.85,0004.93,0003.33
2021-12-10 06:30:00,,0810.0,5.00,0.00,24.6,23.7,00.0,33.6,26.4,13.4,0000.0,0016.14,0004.95,0003.32
2021-12-10 06:31:00,,0810.0,4.99,0.00,24.6,23.6,00.0,33.6,26.4,13.4,0000.0,0016.32,0004.94,0003.32
2021-12-10 06:32:00,,0809.9,5.02,0.00,24.6,23.6,00.0,33.5,26.4,13.4,0000.0,0016.50,0005.01,0003.30
2021-12-10 06:33:00,,0809.9,5.00,0.00,24.6,23.6,00.0,33.5,26.3,13.4,0000.0,0015.96,0005.01,0003.29
2021-12-10 06:34:00,,0809.8,5.00,0.00,24.5,23.6,00.0,33.5,26.3,13.4,0000.0,0015.71,0004.98,0003.27
2021-12-10 06:35:00,,0809.9,4.99,0.00,24.5,23.6,00.0,33.5,26.3,13.4,0000.0,0014.98,0004.96,0003.25
2021-12-10 06:36:00,,0809.9,5.01,0.00,24.5,23.6,00.0,33.5,26.3,13.4,0000.0,0014.26,0004.92,0003.23
2021-12-10 06:37:00,,0809.9,4.99,0.00,24.5,23.6,00.0,33.5,26.3,13.4,0000.0,0013.98,0004.92,0003.22
2021-12-10 06:38:00,,0809.9,5.00,0.00,24.5,23.6,00.0,33.5,26.3,13.4,0000.0,0013.03,0004.87,0003.21
2021-12-10 06:39:00,,0809.9,4.99,0.00,24.5,23.6,00.0,33.5,26.3,13.4,0000.0,0012.97,0004.88,0003.21
2021-12-10 06:40:00,,0809.9,4.99,0.00,24.5,23.6,00.0,33.5,26.3,13.4,0000.0,0012.91,0004.84,0003.20
2021-12-10 06:41:00,,0809.9,5.00,0.00,24.5,23.6,00.0,33.5,26.3,13.4,0000.0,0013.61,0004.82,0003.18
2021-12-10 06:42:00,,0809.9,5.00,0.00,24.5,23.6,00.0,33.5,26.3,13.4,0000.0,0013.76,0004.81,0003.16
2021-12-10 06:43:00,,0810.0,5.00,0.00,24.5,23.6,00.0,33.5,26.3,13.4,0000.0,0014.08,0004.73,0003.15
2021-12-10 06:44:00,,0809.9,4.99,0.00,24.5,23.6,00.0,33.5,26.3,13.4,0000.0,0014.71,0004.69,0003.13
2021-12-10 06:45:00,,0809.9,5.01,0.00,24.5,23.6,00.0,33.4,26.2,13.4,0000.0,0015.67,0004.70,0003.12
2021-12-10 06:46:00,,0809.9,5.00,0.00,24.4,23.5,00.0,33.4,26.2,13.3,0000.0,0016.10,0004.72,0003.12
2021-12-10 06:47:00,,0809.9,4.99,0.00,24.4,23.5,00.0,33.4,26.2,13.4,0000.0,0017.47,0004.72,0003.11
2021-12-10 06:48:00,,0809.9,5.01,0.00,24.4,23.5,00.0,33.4,26.2,13.4,0000.0,0017.50,0004.70,0003.09
2021-12-10 06:49:00,,0809.9,4.99,0.00,24.4,23.5,00.0,33.4,26.2,13.4,0000.0,0018.13,0004.67,0003.06
2021-12-10 06:50:00,,0809.9,5.00,0.00,24.4,23.5,00.0,33.4,26.2,13.3,0000.0,0018.59,0004.69,0003.02
2021-12-10 06:51:00,,0809.9,5.01,0.00,24.4,23.5,00.0,33.4,26.2,13.3,0000.0,0020.47,0004.68,0002.99
2021-12-10 06:52:00,,0809.9,4.98,0.00,24.4,23.5,00.0,33.4,26.2,13.3,0000.0,0019.69,0004.58,0002.96
2021-12-10 06:53:00,,0809.9,5.01,0.00,24.4,23.5,00.0,33.4,26.2,13.3,0000.0,0019.50,0004.57,0002.93
2021-12-10 06:54:00,,0809.9,4.99,0.00,24.4,23.5,00.0,33.4,26.2,13.4,0000.0,0018.74,0004.56,0002.90
2021-12-10 06:55:00,,0809.9,5.00,0.00,24.4,23.5,00.0,33.4,26.2,13.4,0000.0,0018.06,0004.57,0002.87
2021-12-10 06:56:00,,0809.9,5.01,0.00,24.4,23.5,00.0,33.4,26.2,13.4,0000.0,0018.28,0004.56,0002.86
2021-12-10 06:57:00,,0809.9,4.99,0.00,24.4,23.5,00.0,33.4,26.2,13.4,0000.0,0018.07,0004.55,0002.83
2021-12-10 06:58:00,,0810.0,4.98,0.00,24.4,23.5,00.0,33.4,26.2,13.4,0000.0,0017.86,0004.61,0002.79
2021-12-10 06:59:00,,0809.9,5.01,0.00,24.4,23.5,00.0,33.4,26.2,13.4,0000.0,0018.13,0004.69,0002.77
